Home > Weather > Narragansett > Past weeks

Flag for USA Past Weather in Narragansett, Rhode Island, USA — Yesterday and Last 2 Weeks

Now
74 °F

Mostly cloudy.


Feels Like: 73 °F
Forecast: 73 / 81 °F
Wind: 8 mph from Southwest

Location: Newport State Airport

Current Time: Aug 26, 2016 at 2:59:33 AM

Latest Report: Aug 26, 2016 at 1:53 AM


Visibility: 10 mi

Pressure: 29.98 "Hg

Humidity: 88%

Dew Point: 70 °F

Location of NarragansettLocation

Past Weather in Narragansett — Graph

°F

Narragansett Temperature Yesterday

Maximum temperature yesterday: 80 °F (at 1:53 PM)
Minimum temperature yesterday: 69 °F (at 1:53 AM)
Average temperature yesterday: 74 °F

High & Low Weather Summary for the Past Weeks

 TemperatureHumidityPressure
High89 °F (Aug 14, 3:53 PM)100% (Aug 12, 2:53 AM)30.29 "Hg (Aug 12, 2:53 AM)
Low56 °F (Aug 23, 4:53 AM)39% (Aug 23, 12:53 PM)29.75 "Hg (Aug 22, 2:53 AM)
Average76 °F77%30.01 "Hg
* Reported Aug 11 12:53 AM — Aug 26 12:53 AM, Narragansett, Weather by CustomWeather, © 2016

Note: Actual official high and low records may vary slightly from our data, if they occured in-between our weather recording intervals... More about our weather records

Advertising

Narragansett Weather History for the Previous 24 Hours

Scroll right to see more
 ConditionsComfort  
Time TempWeatherWind HumidityBarometerVisibility
12:53 AM
Fri, Aug 26
74 °FPassing clouds.8 mph85%29.99 "Hg10 mi
11:53 PM
Thu, Aug 25
74 °FOvercast.10 mph82%30.00 "Hg10 mi
10:53 PM73 °FPassing clouds.8 mph81%30.01 "Hg10 mi
9:53 PM72 °FClear.7 mph84%30.02 "Hg10 mi
8:53 PM72 °FClear.6 mph84%30.04 "Hg10 mi
7:53 PM73 °FSunny.8 mph79%30.03 "Hg10 mi
6:53 PM74 °FSunny.6 mph74%30.02 "Hg10 mi
5:53 PM76 °FSunny.12 mph72%30.03 "Hg10 mi
4:53 PM77 °FSunny.12 mph69%30.03 "Hg10 mi
3:53 PM78 °FSunny.13 mph66%30.03 "Hg10 mi
2:53 PM79 °FSunny.13 mph65%30.05 "Hg10 mi
1:53 PM80 °FSunny.7 mph62%30.09 "Hg10 mi
12:53 PM77 °FSunny.13 mph66%30.09 "Hg10 mi
11:53 AM78 °FSunny.10 mph66%30.09 "Hg10 mi
10:53 AM77 °FSunny.10 mph69%30.11 "Hg10 mi
9:53 AM76 °FSunny.10 mph74%30.12 "Hg10 mi
8:53 AM74 °FSunny.8 mph79%30.13 "Hg10 mi
7:53 AM72 °FSunny.7 mph84%30.13 "Hg10 mi
6:53 AM71 °FClear.6 mph87%30.13 "Hg10 mi
5:53 AM70 °FClear.8 mph87%30.12 "Hg10 mi
4:53 AM70 °FClear.6 mph87%30.13 "Hg10 mi
3:53 AM70 °FClear.7 mph84%30.11 "Hg10 mi
2:53 AM69 °FClear.7 mph90%30.13 "Hg10 mi
Weather by CustomWeather, © 2016

See weather overviewHow to use our weather pages